Location: Jetmore Oil Field
(38.1181°N, 99.9337°W)
Time: 03:16:02
(UTC+00:00)

Cosmos 1484 Rocket - Pass Details

Date: 17 February 2020
Orbit: 506 x 559 km, 97.4° (Epoch: 09 April)

Event Time Altitude Azimuth Distance (km) Brightness Sun altitude
Rises 11:33:46 0° 11° (N) 2,716 6.5 -23.1°
Reaches altitude 10° 11:35:53 10° 12° (NNE) 1,827 5.6 -22.7°
Maximum altitude 11:39:51 90° 55° (NE) 559 2.7 -21.9°
Enters shadow 11:41:41 31° 193° (SSW) 982 3.9 -21.5°
